Regional Weather Roundup
Issued by NWS Cleveland, OH

Home | Current Version | Previous Version | Text Only | Print | Product List | Glossary Off
Versions: 1 2 3 4 5 6 7 8 9 10 11 12 13 14 15 16 17 18 19 20 21 22 23 24 25 26 27 28 29 30 31 32 33 34 35 36 37 38 39 40 41 42 43 44 45 46 47 48 49 50

000
ASUS41 KCLE 211910
RWRCLE
OHIO REGIONAL WEATHER ROUNDUP
NATIONAL WEATHER SERVICE CLEVELAND, OH
300 PM EDT THU AUG 21 2014

NOTE: "FAIR" INDICATES FEW OR NO CLOUDS BELOW 12,000 FEET WITH NO
SIGNIFICANT WEATHER AND/OR OBSTRUCTIONS TO VISIBILITY.

OHZ001>008-015>018-024>027-034-035-043-044-212000-
   NORTHWEST OHIO

CITY           SKY/WX    TMP DP  RH WIND       PRES   REMARKS
DEFIANCE       CLOUDY    77  69  76 SW10      30.00R
FINDLAY        CLOUDY    76  69  79 SW15      29.99F
TOLEDO EXPRESS CLOUDY    80  69  69 SW7       29.97F
TOLEDO EXEC    CLOUDY    81  68  64 S9        29.98F
LIMA           CLOUDY    73  69  87 S9        30.02F
$$

OHZ009>014-019>023-028>033-038-089-212000-
   NORTHEAST OHIO

CITY           SKY/WX    TMP DP  RH WIND       PRES   REMARKS
CLE-HOPKINS    CLOUDY    78  69  73 SW16      30.01F
CLE-LAKEFRONT  CLOUDY    74  70  87 CALM      29.98S
CUY CO. ARPT   PTSUNNY   77  73  88 W9        30.01S
LORAIN-ELYRIA  CLOUDY    81  67  62 W13       30.00F
ASHTABULA      MOSUNNY   81  67  62 CALM      30.00F
AKRON-CANTON   CLOUDY    79  67  66 SW16G24   30.03F
WOOSTER        CLOUDY    77  67  71 SW15      30.03F
MANSFIELD      CLOUDY    74  68  81 SW12      30.04F
YOUNGSTOWN     CLOUDY    79  68  69 SW15      30.00F
$$

OHZ042-051>053-060>062-070>072-077>081-212000-
  SOUTHWEST OHIO

CITY           SKY/WX    TMP DP  RH WIND       PRES   REMARKS
CINC-COVINGTON CLOUDY    80  73  79 S8        30.07F
CINC-LUNKEN    CLOUDY    76  74  93 E3        30.07F
HAMILTON       CLOUDY    75  72  90 VRB5      30.07F
DAYTON         RAIN      72  69  90 S10       30.09S FOG
WRIGHT-PAT AFB CLOUDY    72  71  95 SW8       30.07S
DAYTON GENERAL CLOUDY    74  71  91 S12       30.07F
WILMINGTON     CLOUDY    71  67  87 S10       30.08F
$$

OHZ036-037-039>041-045>050-054>059-063>069-073>076-082>088-212000-
  CENTRAL AND SOUTHEAST OHIO

CITY           SKY/WX    TMP DP  RH WIND       PRES   REMARKS
COLUMBUS       LGT RAIN  75  70  84 S7        30.06F
OSU AIRPORT    LGT RAIN  74  71  91 S9        30.04F
BOLTON FIELD   LGT RAIN  72  72 100 S6        30.07F
RICKENBACK AFB LGT RAIN  72  67  83 S8        30.05F
NEWARK         LGT RAIN  72  69  90 S8        30.06F
MARION         CLOUDY    71  69  93 SW10      30.04F
LANCASTER      LGT RAIN  74  70  87 S7        30.06F
ZANESVILLE     LGT RAIN  71  68  90 S9        30.07F
NEW PHILLY     CLOUDY    73  68  84 SW7       30.06F
$$



USA.gov is the U.S. government's official web portal to all federal, state and local government web resources and services.